owner,sensor,date,latitude,longitude,vertical_datum,mass_concentration_of_oxygen_in_sea_water,qcFlag 
DISL,ioos:station:DISL:CATA:1,2009-07-01T00:00:00Z,30.3085,-88.1395,2.434,7.04,1111122 
DISL,ioos:station:DISL:CATA:1,2009-07-01T00:30:00Z,30.3085,-88.1395,2.452,7.49,1111122 
DISL,ioos:station:DISL:CATA:1,2009-07-01T01:00:00Z,30.3085,-88.1395,2.452,7.26,1111122 
DISL,ioos:station:DISL:CATA:1,2009-07-01T01:30:00Z,30.3085,-88.1395,2.46,6.81,1111122 
DISL,ioos:station:DISL:CATA:1,2009-07-01T02:00:00Z,30.3085,-88.1395,2.485,6.59,1111122 
DISL,ioos:station:DISL:CATA:1,2009-07-01T02:30:00Z,30.3085,-88.1395,2.499,6.34,1111122 
DISL,ioos:station:DISL:CATA:1,2009-07-01T03:00:00Z,30.3085,-88.1395,2.506,6.5,1111122 
DISL,ioos:station:DISL:CATA:1,2009-07-01T03:30:00Z,30.3085,-88.1395,2.536,6.36,1111122 
DISL,ioos:station:DISL:CATA:1,2009-07-01T04:00:00Z,30.3085,-88.1395,2.553,6.38,1111122 
DISL,ioos:station:DISL:CATA:1,2009-07-01T04:30:00Z,30.3085,-88.1395,2.573,6.2,1111122 
DISL,ioos:station:DISL:CATA:1,2009-07-01T05:00:00Z,30.3085,-88.1395,2.604,6.3,1111122 
DISL,ioos:station:DISL:CATA:1,2009-07-01T05:30:00Z,30.3085,-88.1395,2.626,6.41,1111122 
DISL,ioos:station:DISL:CATA:1,2009-07-01T06:00:00Z,30.3085,-88.1395,2.646,6.43,1111122 
DISL,ioos:station:DISL:CATA:1,2009-07-01T06:30:00Z,30.3085,-88.1395,2.672,7.07,1111122 
DISL,ioos:station:DISL:CATA:1,2009-07-01T07:00:00Z,30.3085,-88.1395,2.687,6.89,1111122 
DISL,ioos:station:DISL:CATA:1,2009-07-01T07:30:00Z,30.3085,-88.1395,2.716,7.08,1111122 
DISL,ioos:station:DISL:CATA:1,2009-07-01T08:00:00Z,30.3085,-88.1395,2.734,6.3,1111122 
DISL,ioos:station:DISL:CATA:1,2009-07-01T08:30:00Z,30.3085,-88.1395,2.749,5.67,1111122 
DISL,ioos:station:DISL:CATA:1,2009-07-01T09:00:00Z,30.3085,-88.1395,2.752,4.71,1111122 
DISL,ioos:station:DISL:CATA:1,2009-07-01T09:30:00Z,30.3085,-88.1395,2.77,4.3,1111122 
DISL,ioos:station:DISL:CATA:1,2009-07-01T10:00:00Z,30.3085,-88.1395,2.779,2.78,1111122 
DISL,ioos:station:DISL:CATA:1,2009-07-01T10:30:00Z,30.3085,-88.1395,2.786,2.06,1111122 
DISL,ioos:station:DISL:CATA:1,2009-07-01T11:00:00Z,30.3085,-88.1395,2.791,2.19,1111122 
DISL,ioos:station:DISL:CATA:1,2009-07-01T11:30:00Z,30.3085,-88.1395,2.805,2.61,1111122 
DISL,ioos:station:DISL:CATA:1,2009-07-01T12:00:00Z,30.3085,-88.1395,2.801,1.73,1111122 
DISL,ioos:station:DISL:CATA:1,2009-07-01T12:30:00Z,30.3085,-88.1395,2.801,1.77,1111122 
DISL,ioos:station:DISL:CATA:1,2009-07-01T13:00:00Z,30.3085,-88.1395,2.803,2.23,1111122 
DISL,ioos:station:DISL:CATA:1,2009-07-01T13:30:00Z,30.3085,-88.1395,2.781,3.33,1111122 
DISL,ioos:station:DISL:CATA:1,2009-07-01T14:00:00Z,30.3085,-88.1395,2.754,3.29,1111122 
DISL,ioos:station:DISL:CATA:1,2009-07-01T14:30:00Z,30.3085,-88.1395,2.738,2.76,1111122 
DISL,ioos:station:DISL:CATA:1,2009-07-01T15:00:00Z,30.3085,-88.1395,2.701,1.62,1111122 
DISL,ioos:station:DISL:CATA:1,2009-07-01T15:30:00Z,30.3085,-88.1395,2.683,2.07,1111122 
DISL,ioos:station:DISL:CATA:1,2009-07-01T16:00:00Z,30.3085,-88.1395,2.641,1.72,1111122 
DISL,ioos:station:DISL:CATA:1,2009-07-01T16:30:00Z,30.3085,-88.1395,2.615,2.7,1111122 
DISL,ioos:station:DISL:CATA:1,2009-07-01T17:00:00Z,30.3085,-88.1395,2.576,3.8,1111122 
DISL,ioos:station:DISL:CATA:1,2009-07-01T17:30:00Z,30.3085,-88.1395,2.542,4.27,1111122 
DISL,ioos:station:DISL:CATA:1,2009-07-01T18:00:00Z,30.3085,-88.1395,2.52,4.38,1111122 
DISL,ioos:station:DISL:CATA:1,2009-07-01T18:30:00Z,30.3085,-88.1395,2.497,5.23,1111122 
DISL,ioos:station:DISL:CATA:1,2009-07-01T19:00:00Z,30.3085,-88.1395,2.462,5.15,1111122 
DISL,ioos:station:DISL:CATA:1,2009-07-01T19:30:00Z,30.3085,-88.1395,2.447,4.89,1111122 
DISL,ioos:station:DISL:CATA:1,2009-07-01T20:00:00Z,30.3085,-88.1395,2.428,4.52,1111122 
DISL,ioos:station:DISL:CATA:1,2009-07-01T20:30:00Z,30.3085,-88.1395,2.402,4.6,1111122 
DISL,ioos:station:DISL:CATA:1,2009-07-01T21:00:00Z,30.3085,-88.1395,2.383,4.27,1111122 
DISL,ioos:station:DISL:CATA:1,2009-07-01T21:30:00Z,30.3085,-88.1395,2.368,4.33,1111122 
DISL,ioos:station:DISL:CATA:1,2009-07-01T22:00:00Z,30.3085,-88.1395,2.361,4.7,1111122 
DISL,ioos:station:DISL:CATA:1,2009-07-01T22:30:00Z,30.3085,-88.1395,2.36,4.76,1111122 
DISL,ioos:station:DISL:CATA:1,2009-07-01T23:00:00Z,30.3085,-88.1395,2.363,4.58,1111122 
DISL,ioos:station:DISL:CATA:1,2009-07-01T23:30:00Z,30.3085,-88.1395,2.38,4.19,1111122 
DISL,ioos:station:DISL:CATA:1,2009-07-02T00:00:00Z,30.3085,-88.1395,2.4,3.79,1111122 
DISL,ioos:station:DISL:CATA:1,2009-07-02T00:30:00Z,30.3085,-88.1395,2.411,6.11,1111122 
DISL,ioos:station:DISL:CATA:1,2009-07-02T01:00:00Z,30.3085,-88.1395,2.437,6.61,1111122 
DISL,ioos:station:DISL:CATA:1,2009-07-02T01:30:00Z,30.3085,-88.1395,2.459,6.77,1111122 
DISL,ioos:station:DISL:CATA:1,2009-07-02T02:00:00Z,30.3085,-88.1395,2.477,6.48,1111122 
DISL,ioos:station:DISL:CATA:1,2009-07-02T02:30:00Z,30.3085,-88.1395,2.49,6.2,1111122 
DISL,ioos:station:DISL:CATA:1,2009-07-02T03:00:00Z,30.3085,-88.1395,2.509,6.59,1111122 
DISL,ioos:station:DISL:CATA:1,2009-07-02T03:30:00Z,30.3085,-88.1395,2.532,6.58,1111122 
DISL,ioos:station:DISL:CATA:1,2009-07-02T04:00:00Z,30.3085,-88.1395,2.567,6.44,1111122 
DISL,ioos:station:DISL:CATA:1,2009-07-02T04:30:00Z,30.3085,-88.1395,2.602,6.65,1111122 
DISL,ioos:station:DISL:CATA:1,2009-07-02T05:00:00Z,30.3085,-88.1395,2.633,6.4,1111122 
DISL,ioos:station:DISL:CATA:1,2009-07-02T05:30:00Z,30.3085,-88.1395,2.642,6.31,1111122 
DISL,ioos:station:DISL:CATA:1,2009-07-02T06:00:00Z,30.3085,-88.1395,2.66,6.55,1111122 
DISL,ioos:station:DISL:CATA:1,2009-07-02T06:30:00Z,30.3085,-88.1395,2.686,6.08,1111122 
DISL,ioos:station:DISL:CATA:1,2009-07-02T07:00:00Z,30.3085,-88.1395,2.713,6.09,1111122 
DISL,ioos:station:DISL:CATA:1,2009-07-02T07:30:00Z,30.3085,-88.1395,2.734,6.07,1111122 
DISL,ioos:station:DISL:CATA:1,2009-07-02T08:00:00Z,30.3085,-88.1395,2.763,5.76,1111122 
DISL,ioos:station:DISL:CATA:1,2009-07-02T08:30:00Z,30.3085,-88.1395,2.796,5.98,1111122 
DISL,ioos:station:DISL:CATA:1,2009-07-02T09:00:00Z,30.3085,-88.1395,2.819,5.78,1111122 
DISL,ioos:station:DISL:CATA:1,2009-07-02T09:30:00Z,30.3085,-88.1395,2.838,6.08,1111122 
DISL,ioos:station:DISL:CATA:1,2009-07-02T10:00:00Z,30.3085,-88.1395,2.864,6.06,1111122 
DISL,ioos:station:DISL:CATA:1,2009-07-02T10:30:00Z,30.3085,-88.1395,2.873,5.95,1111122 
DISL,ioos:station:DISL:CATA:1,2009-07-02T11:00:00Z,30.3085,-88.1395,2.882,5.86,1111122 
DISL,ioos:station:DISL:CATA:1,2009-07-02T11:30:00Z,30.3085,-88.1395,2.886,5.62,1111122 
DISL,ioos:station:DISL:CATA:1,2009-07-02T12:00:00Z,30.3085,-88.1395,2.882,5.47,1111122 
DISL,ioos:station:DISL:CATA:1,2009-07-02T12:30:00Z,30.3085,-88.1395,2.881,5.52,1111122 
DISL,ioos:station:DISL:CATA:1,2009-07-02T13:00:00Z,30.3085,-88.1395,2.886,5.3,1111122 
DISL,ioos:station:DISL:CATA:1,2009-07-02T13:30:00Z,30.3085,-88.1395,2.886,4.95,1111122 
DISL,ioos:station:DISL:CATA:1,2009-07-02T14:00:00Z,30.3085,-88.1395,2.888,4.52,1111122 
DISL,ioos:station:DISL:CATA:1,2009-07-02T14:30:00Z,30.3085,-88.1395,2.862,4.23,1111122 
DISL,ioos:station:DISL:CATA:1,2009-07-02T15:00:00Z,30.3085,-88.1395,2.829,3.34,1111122 
DISL,ioos:station:DISL:CATA:1,2009-07-02T15:30:00Z,30.3085,-88.1395,2.801,3.36,1111122 
DISL,ioos:station:DISL:CATA:1,2009-07-02T16:00:00Z,30.3085,-88.1395,2.776,3.14,1111122 
DISL,ioos:station:DISL:CATA:1,2009-07-02T16:30:00Z,30.3085,-88.1395,2.742,1.09,1111122 
DISL,ioos:station:DISL:CATA:1,2009-07-02T17:00:00Z,30.3085,-88.1395,2.699,0.96,1111122 
DISL,ioos:station:DISL:CATA:1,2009-07-02T17:30:00Z,30.3085,-88.1395,2.659,1.12,1111122 
DISL,ioos:station:DISL:CATA:1,2009-07-02T18:00:00Z,30.3085,-88.1395,2.617,1.17,1111122 
DISL,ioos:station:DISL:CATA:1,2009-07-02T18:30:00Z,30.3085,-88.1395,2.582,1.52,1111122 
DISL,ioos:station:DISL:CATA:1,2009-07-02T19:00:00Z,30.3085,-88.1395,2.545,1.76,1111122 
DISL,ioos:station:DISL:CATA:1,2009-07-02T19:30:00Z,30.3085,-88.1395,2.464,2.3,1111122 
DISL,ioos:station:DISL:CATA:1,2009-07-02T20:00:00Z,30.3085,-88.1395,2.431,2.17,1111122 
DISL,ioos:station:DISL:CATA:1,2009-07-02T20:30:00Z,30.3085,-88.1395,2.405,1.92,1111122 
DISL,ioos:station:DISL:CATA:1,2009-07-02T21:00:00Z,30.3085,-88.1395,2.384,1.83,1111122 
DISL,ioos:station:DISL:CATA:1,2009-07-02T21:30:00Z,30.3085,-88.1395,2.365,1.62,1111122 
DISL,ioos:station:DISL:CATA:1,2009-07-02T22:00:00Z,30.3085,-88.1395,2.354,1.65,1111122 
DISL,ioos:station:DISL:CATA:1,2009-07-02T22:30:00Z,30.3085,-88.1395,2.345,3.45,1111122 
DISL,ioos:station:DISL:CATA:1,2009-07-02T23:00:00Z,30.3085,-88.1395,2.35,4.05,1111122 
DISL,ioos:station:DISL:CATA:1,2009-07-02T23:30:00Z,30.3085,-88.1395,2.374,4.53,1111122 
DISL,ioos:station:DISL:CATA:1,2009-07-03T00:00:00Z,30.3085,-88.1395,2.363,4.99,1111122 
DISL,ioos:station:DISL:CATA:1,2009-07-03T00:30:00Z,30.3085,-88.1395,2.352,5.07,1111122 
DISL,ioos:station:DISL:CATA:1,2009-07-03T01:00:00Z,30.3085,-88.1395,2.368,5.58,1111122 
DISL,ioos:station:DISL:CATA:1,2009-07-03T01:30:00Z,30.3085,-88.1395,2.393,5.04,1111122 
DISL,ioos:station:DISL:CATA:1,2009-07-03T02:00:00Z,30.3085,-88.1395,2.43,5.01,1111122 
DISL,ioos:station:DISL:CATA:1,2009-07-03T02:30:00Z,30.3085,-88.1395,2.447,4.64,1111122 
DISL,ioos:station:DISL:CATA:1,2009-07-03T03:00:00Z,30.3085,-88.1395,2.427,4.82,1111122 
DISL,ioos:station:DISL:CATA:1,2009-07-03T03:30:00Z,30.3085,-88.1395,2.404,5.13,1111122 
DISL,ioos:station:DISL:CATA:1,2009-07-03T04:00:00Z,30.3085,-88.1395,2.43,5.11,1111122 
DISL,ioos:station:DISL:CATA:1,2009-07-03T04:30:00Z,30.3085,-88.1395,2.467,4.83,1111122 
DISL,ioos:station:DISL:CATA:1,2009-07-03T05:00:00Z,30.3085,-88.1395,2.468,4.85,1111122 
DISL,ioos:station:DISL:CATA:1,2009-07-03T05:30:00Z,30.3085,-88.1395,2.492,4.73,1111122 
DISL,ioos:station:DISL:CATA:1,2009-07-03T06:00:00Z,30.3085,-88.1395,2.527,4.88,1111122 
DISL,ioos:station:DISL:CATA:1,2009-07-03T06:30:00Z,30.3085,-88.1395,2.551,4.99,1111122 
DISL,ioos:station:DISL:CATA:1,2009-07-03T07:00:00Z,30.3085,-88.1395,2.556,5.07,1111122 
DISL,ioos:station:DISL:CATA:1,2009-07-03T07:30:00Z,30.3085,-88.1395,2.602,4.98,1111122 
DISL,ioos:station:DISL:CATA:1,2009-07-03T08:00:00Z,30.3085,-88.1395,2.629,5.04,1111122 
DISL,ioos:station:DISL:CATA:1,2009-07-03T08:30:00Z,30.3085,-88.1395,2.652,4.93,1111122 
DISL,ioos:station:DISL:CATA:1,2009-07-03T09:00:00Z,30.3085,-88.1395,2.68,5.0,1111122 
DISL,ioos:station:DISL:CATA:1,2009-07-03T09:30:00Z,30.3085,-88.1395,2.706,5.07,1111122 
DISL,ioos:station:DISL:CATA:1,2009-07-03T10:00:00Z,30.3085,-88.1395,2.742,5.18,1111122 
DISL,ioos:station:DISL:CATA:1,2009-07-03T10:30:00Z,30.3085,-88.1395,2.765,5.15,1111122 
DISL,ioos:station:DISL:CATA:1,2009-07-03T11:00:00Z,30.3085,-88.1395,2.775,5.13,1111122 
DISL,ioos:station:DISL:CATA:1,2009-07-03T11:30:00Z,30.3085,-88.1395,2.8,5.13,1111122 
DISL,ioos:station:DISL:CATA:1,2009-07-03T12:00:00Z,30.3085,-88.1395,2.805,5.1,1111122 
DISL,ioos:station:DISL:CATA:1,2009-07-03T12:30:00Z,30.3085,-88.1395,2.81,4.99,1111122 
DISL,ioos:station:DISL:CATA:1,2009-07-03T13:00:00Z,30.3085,-88.1395,2.808,4.77,1111122 
DISL,ioos:station:DISL:CATA:1,2009-07-03T13:30:00Z,30.3085,-88.1395,2.808,4.45,1111122 
DISL,ioos:station:DISL:CATA:1,2009-07-03T14:00:00Z,30.3085,-88.1395,2.821,4.03,1111122 
DISL,ioos:station:DISL:CATA:1,2009-07-03T14:30:00Z,30.3085,-88.1395,2.807,3.66,1111122 
DISL,ioos:station:DISL:CATA:1,2009-07-03T15:00:00Z,30.3085,-88.1395,2.796,3.85,1111122 
DISL,ioos:station:DISL:CATA:1,2009-07-03T15:30:00Z,30.3085,-88.1395,2.779,3.54,1111122 
DISL,ioos:station:DISL:CATA:1,2009-07-03T16:00:00Z,30.3085,-88.1395,2.748,3.42,1111122 
DISL,ioos:station:DISL:CATA:1,2009-07-03T16:30:00Z,30.3085,-88.1395,2.716,4.44,1111122 
DISL,ioos:station:DISL:CATA:1,2009-07-03T17:00:00Z,30.3085,-88.1395,2.681,5.23,1111122 
DISL,ioos:station:DISL:CATA:1,2009-07-03T17:30:00Z,30.3085,-88.1395,2.643,5.55,1111122 
DISL,ioos:station:DISL:CATA:1,2009-07-03T18:00:00Z,30.3085,-88.1395,2.602,5.49,1111122 
DISL,ioos:station:DISL:CATA:1,2009-07-03T18:30:00Z,30.3085,-88.1395,2.557,5.96,1111122 
DISL,ioos:station:DISL:CATA:1,2009-07-03T19:00:00Z,30.3085,-88.1395,2.51,6.15,1111122 
DISL,ioos:station:DISL:CATA:1,2009-07-03T19:30:00Z,30.3085,-88.1395,2.462,6.2,1111122 
DISL,ioos:station:DISL:CATA:1,2009-07-03T20:00:00Z,30.3085,-88.1395,2.42,6.02,1111122 
DISL,ioos:station:DISL:CATA:1,2009-07-03T20:30:00Z,30.3085,-88.1395,2.386,6.05,1111122 
DISL,ioos:station:DISL:CATA:1,2009-07-03T21:00:00Z,30.3085,-88.1395,2.359,6.08,1111122 
DISL,ioos:station:DISL:CATA:1,2009-07-03T21:30:00Z,30.3085,-88.1395,2.337,6.0,1111122 
DISL,ioos:station:DISL:CATA:1,2009-07-03T22:00:00Z,30.3085,-88.1395,2.317,5.97,1111122 
DISL,ioos:station:DISL:CATA:1,2009-07-03T22:30:00Z,30.3085,-88.1395,2.297,5.95,1111122 
DISL,ioos:station:DISL:CATA:1,2009-07-03T23:00:00Z,30.3085,-88.1395,2.289,5.88,1111122 
DISL,ioos:station:DISL:CATA:1,2009-07-03T23:30:00Z,30.3085,-88.1395,2.288,5.9,1111122 
DISL,ioos:station:DISL:CATA:1,2009-07-04T00:00:00Z,30.3085,-88.1395,2.268,5.93,1111122 
DISL,ioos:station:DISL:CATA:1,2009-07-04T00:30:00Z,30.3085,-88.1395,2.277,5.68,1111122 
DISL,ioos:station:DISL:CATA:1,2009-07-04T01:00:00Z,30.3085,-88.1395,2.291,5.5,1111122 
DISL,ioos:station:DISL:CATA:1,2009-07-04T01:30:00Z,30.3085,-88.1395,2.314,4.98,1111122 
DISL,ioos:station:DISL:CATA:1,2009-07-04T02:00:00Z,30.3085,-88.1395,2.336,4.73,1111122 
DISL,ioos:station:DISL:CATA:1,2009-07-04T02:30:00Z,30.3085,-88.1395,2.339,5.25,1111122 
DISL,ioos:station:DISL:CATA:1,2009-07-04T03:00:00Z,30.3085,-88.1395,2.36,5.38,1111122 
DISL,ioos:station:DISL:CATA:1,2009-07-04T03:30:00Z,30.3085,-88.1395,2.38,5.47,1111122 
DISL,ioos:station:DISL:CATA:1,2009-07-04T04:00:00Z,30.3085,-88.1395,2.401,5.7,1111122 
DISL,ioos:station:DISL:CATA:1,2009-07-04T04:30:00Z,30.3085,-88.1395,2.429,5.51,1111122 
DISL,ioos:station:DISL:CATA:1,2009-07-04T05:00:00Z,30.3085,-88.1395,2.45,5.56,1111122 
DISL,ioos:station:DISL:CATA:1,2009-07-04T05:30:00Z,30.3085,-88.1395,2.48,5.59,1111122 
DISL,ioos:station:DISL:CATA:1,2009-07-04T06:00:00Z,30.3085,-88.1395,2.506,5.58,1111122 
DISL,ioos:station:DISL:CATA:1,2009-07-04T06:30:00Z,30.3085,-88.1395,2.532,5.14,1111122 
DISL,ioos:station:DISL:CATA:1,2009-07-04T07:00:00Z,30.3085,-88.1395,2.554,4.98,1111122 
DISL,ioos:station:DISL:CATA:1,2009-07-04T07:30:00Z,30.3085,-88.1395,2.582,5.59,1111122 
DISL,ioos:station:DISL:CATA:1,2009-07-04T08:00:00Z,30.3085,-88.1395,2.617,5.74,1111122 
DISL,ioos:station:DISL:CATA:1,2009-07-04T08:30:00Z,30.3085,-88.1395,2.649,5.76,1111122 
DISL,ioos:station:DISL:CATA:1,2009-07-04T09:00:00Z,30.3085,-88.1395,2.679,5.55,1111122 
DISL,ioos:station:DISL:CATA:1,2009-07-04T09:30:00Z,30.3085,-88.1395,2.709,5.59,1111122 
DISL,ioos:station:DISL:CATA:1,2009-07-04T10:00:00Z,30.3085,-88.1395,2.737,5.23,1111122 
DISL,ioos:station:DISL:CATA:1,2009-07-04T10:30:00Z,30.3085,-88.1395,2.751,4.89,1111122 
DISL,ioos:station:DISL:CATA:1,2009-07-04T11:00:00Z,30.3085,-88.1395,2.777,4.67,1111122 
DISL,ioos:station:DISL:CATA:1,2009-07-04T11:30:00Z,30.3085,-88.1395,2.788,4.36,1111122 
DISL,ioos:station:DISL:CATA:1,2009-07-04T12:00:00Z,30.3085,-88.1395,2.809,4.32,1111122 
DISL,ioos:station:DISL:CATA:1,2009-07-04T12:30:00Z,30.3085,-88.1395,2.821,4.13,1111122 
DISL,ioos:station:DISL:CATA:1,2009-07-04T13:00:00Z,30.3085,-88.1395,2.834,4.06,1111122 
DISL,ioos:station:DISL:CATA:1,2009-07-04T13:30:00Z,30.3085,-88.1395,2.85,4.12,1111122 
DISL,ioos:station:DISL:CATA:1,2009-07-04T14:00:00Z,30.3085,-88.1395,2.852,4.25,1111122 
DISL,ioos:station:DISL:CATA:1,2009-07-04T14:30:00Z,30.3085,-88.1395,2.856,4.33,1111122 
DISL,ioos:station:DISL:CATA:1,2009-07-04T15:00:00Z,30.3085,-88.1395,2.859,4.11,1111122 
DISL,ioos:station:DISL:CATA:1,2009-07-04T15:30:00Z,30.3085,-88.1395,2.826,4.03,1111122 
DISL,ioos:station:DISL:CATA:1,2009-07-04T16:00:00Z,30.3085,-88.1395,2.809,3.84,1111122 
DISL,ioos:station:DISL:CATA:1,2009-07-04T16:30:00Z,30.3085,-88.1395,2.779,3.91,1111122 
DISL,ioos:station:DISL:CATA:1,2009-07-04T17:00:00Z,30.3085,-88.1395,2.739,3.9,1111122 
DISL,ioos:station:DISL:CATA:1,2009-07-04T17:30:00Z,30.3085,-88.1395,2.706,3.82,1111122 
DISL,ioos:station:DISL:CATA:1,2009-07-04T18:00:00Z,30.3085,-88.1395,2.677,4.64,1111122 
DISL,ioos:station:DISL:CATA:1,2009-07-04T18:30:00Z,30.3085,-88.1395,2.634,6.1,1111122 
DISL,ioos:station:DISL:CATA:1,2009-07-04T19:00:00Z,30.3085,-88.1395,2.601,6.08,1111122 
DISL,ioos:station:DISL:CATA:1,2009-07-04T19:30:00Z,30.3085,-88.1395,2.624,6.55,1111122 
DISL,ioos:station:DISL:CATA:1,2009-07-04T20:00:00Z,30.3085,-88.1395,2.47,7.04,1111122 
DISL,ioos:station:DISL:CATA:1,2009-07-04T20:30:00Z,30.3085,-88.1395,2.432,5.19,1111122 
DISL,ioos:station:DISL:CATA:1,2009-07-04T21:00:00Z,30.3085,-88.1395,2.411,4.72,1111122 
DISL,ioos:station:DISL:CATA:1,2009-07-04T21:30:00Z,30.3085,-88.1395,2.401,4.23,1111122 
DISL,ioos:station:DISL:CATA:1,2009-07-04T22:00:00Z,30.3085,-88.1395,2.36,3.83,1111122 
DISL,ioos:station:DISL:CATA:1,2009-07-04T22:30:00Z,30.3085,-88.1395,2.337,3.6,1111122 
DISL,ioos:station:DISL:CATA:1,2009-07-04T23:00:00Z,30.3085,-88.1395,2.305,3.4,1111122 
DISL,ioos:station:DISL:CATA:1,2009-07-04T23:30:00Z,30.3085,-88.1395,2.309,3.64,1111122 
DISL,ioos:station:DISL:CATA:1,2009-07-05T00:00:00Z,30.3085,-88.1395,2.292,3.91,1111122 
DISL,ioos:station:DISL:CATA:1,2009-07-05T00:30:00Z,30.3085,-88.1395,2.281,3.52,1111122 
DISL,ioos:station:DISL:CATA:1,2009-07-05T01:00:00Z,30.3085,-88.1395,2.265,3.49,1111122 
DISL,ioos:station:DISL:CATA:1,2009-07-05T01:30:00Z,30.3085,-88.1395,2.254,3.5,1111122 
DISL,ioos:station:DISL:CATA:1,2009-07-05T02:00:00Z,30.3085,-88.1395,2.285,3.9,1111122 
DISL,ioos:station:DISL:CATA:1,2009-07-05T02:30:00Z,30.3085,-88.1395,2.278,3.72,1111122 
DISL,ioos:station:DISL:CATA:1,2009-07-05T03:00:00Z,30.3085,-88.1395,2.297,3.7,1111122 
DISL,ioos:station:DISL:CATA:1,2009-07-05T03:30:00Z,30.3085,-88.1395,2.312,2.73,1111122 
DISL,ioos:station:DISL:CATA:1,2009-07-05T04:00:00Z,30.3085,-88.1395,2.333,2.3,1111122 
DISL,ioos:station:DISL:CATA:1,2009-07-05T04:30:00Z,30.3085,-88.1395,2.372,4.07,1111122 
DISL,ioos:station:DISL:CATA:1,2009-07-05T05:00:00Z,30.3085,-88.1395,2.4,5.36,1111122 
DISL,ioos:station:DISL:CATA:1,2009-07-05T05:30:00Z,30.3085,-88.1395,2.408,5.05,1111122 
DISL,ioos:station:DISL:CATA:1,2009-07-05T06:00:00Z,30.3085,-88.1395,2.428,4.89,1111122 
DISL,ioos:station:DISL:CATA:1,2009-07-05T06:30:00Z,30.3085,-88.1395,2.458,4.57,1111122 
DISL,ioos:station:DISL:CATA:1,2009-07-05T07:00:00Z,30.3085,-88.1395,2.484,4.62,1111122 
DISL,ioos:station:DISL:CATA:1,2009-07-05T07:30:00Z,30.3085,-88.1395,2.497,4.51,1111122 
DISL,ioos:station:DISL:CATA:1,2009-07-05T08:00:00Z,30.3085,-88.1395,2.544,5.18,1111122 
DISL,ioos:station:DISL:CATA:1,2009-07-05T08:30:00Z,30.3085,-88.1395,2.592,5.59,1111122 
DISL,ioos:station:DISL:CATA:1,2009-07-05T09:00:00Z,30.3085,-88.1395,2.611,5.71,1111122 
DISL,ioos:station:DISL:CATA:1,2009-07-05T09:30:00Z,30.3085,-88.1395,2.64,5.65,1111122 
DISL,ioos:station:DISL:CATA:1,2009-07-05T10:00:00Z,30.3085,-88.1395,2.671,5.56,1111122 
DISL,ioos:station:DISL:CATA:1,2009-07-05T10:30:00Z,30.3085,-88.1395,2.696,5.44,1111122 
DISL,ioos:station:DISL:CATA:1,2009-07-05T11:00:00Z,30.3085,-88.1395,2.741,5.48,1111122 
DISL,ioos:station:DISL:CATA:1,2009-07-05T11:30:00Z,30.3085,-88.1395,2.735,5.38,1111122 
DISL,ioos:station:DISL:CATA:1,2009-07-05T12:00:00Z,30.3085,-88.1395,2.783,5.27,1111122 
DISL,ioos:station:DISL:CATA:1,2009-07-05T12:30:00Z,30.3085,-88.1395,2.813,5.19,1111122 
DISL,ioos:station:DISL:CATA:1,2009-07-05T13:00:00Z,30.3085,-88.1395,2.855,5.16,1111122 
DISL,ioos:station:DISL:CATA:1,2009-07-05T13:30:00Z,30.3085,-88.1395,2.854,5.19,1111122 
DISL,ioos:station:DISL:CATA:1,2009-07-05T14:00:00Z,30.3085,-88.1395,2.851,5.34,1111122 
DISL,ioos:station:DISL:CATA:1,2009-07-05T14:30:00Z,30.3085,-88.1395,2.853,5.33,1111122 
DISL,ioos:station:DISL:CATA:1,2009-07-05T15:00:00Z,30.3085,-88.1395,2.875,5.21,1111122 
DISL,ioos:station:DISL:CATA:1,2009-07-05T15:30:00Z,30.3085,-88.1395,2.856,5.36,1111122 
DISL,ioos:station:DISL:CATA:1,2009-07-05T16:00:00Z,30.3085,-88.1395,2.852,5.61,1111122 
DISL,ioos:station:DISL:CATA:1,2009-07-05T16:30:00Z,30.3085,-88.1395,2.833,5.56,1111122 
DISL,ioos:station:DISL:CATA:1,2009-07-05T17:00:00Z,30.3085,-88.1395,2.805,5.59,1111122 
DISL,ioos:station:DISL:CATA:1,2009-07-05T17:30:00Z,30.3085,-88.1395,2.76,5.7,1111122 
DISL,ioos:station:DISL:CATA:1,2009-07-05T18:00:00Z,30.3085,-88.1395,2.733,5.63,1111122 
DISL,ioos:station:DISL:CATA:1,2009-07-05T18:30:00Z,30.3085,-88.1395,2.708,5.62,1111122 
DISL,ioos:station:DISL:CATA:1,2009-07-05T19:00:00Z,30.3085,-88.1395,2.668,5.77,1111122 
DISL,ioos:station:DISL:CATA:1,2009-07-05T19:30:00Z,30.3085,-88.1395,2.622,5.55,1111122 
DISL,ioos:station:DISL:CATA:1,2009-07-05T20:00:00Z,30.3085,-88.1395,2.586,5.37,1111122 
DISL,ioos:station:DISL:CATA:1,2009-07-05T20:30:00Z,30.3085,-88.1395,2.547,4.87,1111122 
DISL,ioos:station:DISL:CATA:1,2009-07-05T21:00:00Z,30.3085,-88.1395,2.511,4.42,1111122 
DISL,ioos:station:DISL:CATA:1,2009-07-05T21:30:00Z,30.3085,-88.1395,2.461,3.7,1111122 
DISL,ioos:station:DISL:CATA:1,2009-07-05T22:00:00Z,30.3085,-88.1395,2.425,3.59,1111122 
DISL,ioos:station:DISL:CATA:1,2009-07-05T22:30:00Z,30.3085,-88.1395,2.391,2.79,1111122 
DISL,ioos:station:DISL:CATA:1,2009-07-05T23:00:00Z,30.3085,-88.1395,2.366,2.17,1111122 
DISL,ioos:station:DISL:CATA:1,2009-07-05T23:30:00Z,30.3085,-88.1395,2.344,2.5,1111122 
DISL,ioos:station:DISL:CATA:1,2009-07-06T00:00:00Z,30.3085,-88.1395,2.322,2.74,1111122 
DISL,ioos:station:DISL:CATA:1,2009-07-06T00:30:00Z,30.3085,-88.1395,2.307,2.86,1111122 
DISL,ioos:station:DISL:CATA:1,2009-07-06T01:00:00Z,30.3085,-88.1395,2.307,3.65,1111122 
DISL,ioos:station:DISL:CATA:1,2009-07-06T01:30:00Z,30.3085,-88.1395,2.305,3.67,1111122 
DISL,ioos:station:DISL:CATA:1,2009-07-06T02:00:00Z,30.3085,-88.1395,2.301,3.46,1111122 
DISL,ioos:station:DISL:CATA:1,2009-07-06T02:30:00Z,30.3085,-88.1395,2.299,3.08,1111122 
DISL,ioos:station:DISL:CATA:1,2009-07-06T03:00:00Z,30.3085,-88.1395,2.301,3.22,1111122 
DISL,ioos:station:DISL:CATA:1,2009-07-06T03:30:00Z,30.3085,-88.1395,2.311,3.99,1111122 
DISL,ioos:station:DISL:CATA:1,2009-07-06T04:00:00Z,30.3085,-88.1395,2.317,4.54,1111122 
DISL,ioos:station:DISL:CATA:1,2009-07-06T04:30:00Z,30.3085,-88.1395,2.323,4.56,1111122 
DISL,ioos:station:DISL:CATA:1,2009-07-06T05:00:00Z,30.3085,-88.1395,2.348,4.58,1111122 
DISL,ioos:station:DISL:CATA:1,2009-07-06T05:30:00Z,30.3085,-88.1395,2.373,4.68,1111122 
DISL,ioos:station:DISL:CATA:1,2009-07-06T06:00:00Z,30.3085,-88.1395,2.396,4.76,1111122 
DISL,ioos:station:DISL:CATA:1,2009-07-06T06:30:00Z,30.3085,-88.1395,2.4,5.12,1111122 
DISL,ioos:station:DISL:CATA:1,2009-07-06T07:00:00Z,30.3085,-88.1395,2.432,5.27,1111122 
DISL,ioos:station:DISL:CATA:1,2009-07-06T07:30:00Z,30.3085,-88.1395,2.457,5.51,1111122 
DISL,ioos:station:DISL:CATA:1,2009-07-06T08:00:00Z,30.3085,-88.1395,2.482,5.41,1111122 
DISL,ioos:station:DISL:CATA:1,2009-07-06T08:30:00Z,30.3085,-88.1395,2.509,5.28,1111122 
DISL,ioos:station:DISL:CATA:1,2009-07-06T09:00:00Z,30.3085,-88.1395,2.537,5.2,1111122 
DISL,ioos:station:DISL:CATA:1,2009-07-06T09:30:00Z,30.3085,-88.1395,2.58,5.18,1111122 
DISL,ioos:station:DISL:CATA:1,2009-07-06T10:00:00Z,30.3085,-88.1395,2.601,5.3,1111122 
DISL,ioos:station:DISL:CATA:1,2009-07-06T10:30:00Z,30.3085,-88.1395,2.616,5.29,1111122 
DISL,ioos:station:DISL:CATA:1,2009-07-06T11:00:00Z,30.3085,-88.1395,2.658,5.38,1111122 
DISL,ioos:station:DISL:CATA:1,2009-07-06T11:30:00Z,30.3085,-88.1395,2.673,5.29,1111122 
DISL,ioos:station:DISL:CATA:1,2009-07-06T12:00:00Z,30.3085,-88.1395,2.705,5.28,1111122 
DISL,ioos:station:DISL:CATA:1,2009-07-06T12:30:00Z,30.3085,-88.1395,2.738,5.27,1111122 
DISL,ioos:station:DISL:CATA:1,2009-07-06T13:00:00Z,30.3085,-88.1395,2.765,5.28,1111122 
DISL,ioos:station:DISL:CATA:1,2009-07-06T13:30:00Z,30.3085,-88.1395,2.797,5.22,1111122 
DISL,ioos:station:DISL:CATA:1,2009-07-06T14:00:00Z,30.3085,-88.1395,2.787,5.24,1111122 
DISL,ioos:station:DISL:CATA:1,2009-07-06T14:30:00Z,30.3085,-88.1395,2.808,5.38,1111122 
DISL,ioos:station:DISL:CATA:1,2009-07-06T15:00:00Z,30.3085,-88.1395,2.796,5.4,1111122 
DISL,ioos:station:DISL:CATA:1,2009-07-06T15:30:00Z,30.3085,-88.1395,2.774,5.34,1111122 